Year,Month,Day,Hour,Minute,Value (Times are PST for windgust in km/hr)
2016,10,07,00,00,14.50
2016,10,07,00,01,8.10
2016,10,07,00,02,14.50
2016,10,07,00,03,22.50
2016,10,07,00,04,19.30
2016,10,07,00,05,25.70
2016,10,07,00,06,17.70
2016,10,07,00,07,9.60
2016,10,07,00,08,14.50
2016,10,07,00,09,17.70
2016,10,07,00,10,11.30
2016,10,07,00,11,30.60
2016,10,07,00,12,32.20
2016,10,07,00,13,22.50
2016,10,07,00,14,6.40
2016,10,07,00,15,9.60
2016,10,07,00,16,24.20
2016,10,07,00,17,12.90
2016,10,07,00,18,19.30
2016,10,07,00,19,32.20
2016,10,07,00,20,20.90
2016,10,07,00,21,17.70
2016,10,07,00,22,56.30
2016,10,07,00,23,37.00
2016,10,07,00,24,20.90
2016,10,07,00,25,27.40
2016,10,07,00,26,37.00
2016,10,07,00,27,32.20
2016,10,07,00,28,43.50
2016,10,07,00,29,29.00
2016,10,07,00,30,40.20
2016,10,07,00,31,32.20
2016,10,07,00,32,37.00
2016,10,07,00,33,35.40
2016,10,07,00,34,29.00
2016,10,07,00,35,25.70
2016,10,07,00,36,30.60
2016,10,07,00,37,38.60
2016,10,07,00,38,29.00
2016,10,07,00,39,27.40
2016,10,07,00,40,27.40
2016,10,07,00,41,27.40
2016,10,07,00,42,37.00
2016,10,07,00,43,46.70
2016,10,07,00,44,40.20
2016,10,07,00,45,32.20
2016,10,07,00,46,45.10
2016,10,07,00,47,35.40
2016,10,07,00,48,35.40
2016,10,07,00,49,24.20
2016,10,07,00,50,38.60
2016,10,07,00,51,29.00
2016,10,07,00,52,25.70
2016,10,07,00,53,30.60
2016,10,07,00,54,16.10
2016,10,07,00,55,43.50
2016,10,07,00,56,24.20
2016,10,07,00,57,43.50
2016,10,07,00,58,33.80
2016,10,07,00,59,43.50
2016,10,07,01,00,57.90
2016,10,07,01,01,11.30
2016,10,07,01,02,32.20
2016,10,07,01,03,30.60
2016,10,07,01,04,17.70
2016,10,07,01,05,24.20
2016,10,07,01,06,35.40
2016,10,07,01,07,41.80
2016,10,07,01,08,16.10
2016,10,07,01,09,33.80
2016,10,07,01,10,35.40
2016,10,07,01,11,33.80
2016,10,07,01,12,37.00
2016,10,07,01,13,38.60
2016,10,07,01,14,29.00
2016,10,07,01,15,32.20
2016,10,07,01,16,32.20
2016,10,07,01,17,24.20
2016,10,07,01,18,43.50
2016,10,07,01,19,17.70
2016,10,07,01,20,11.30
2016,10,07,01,21,27.40
2016,10,07,01,22,12.90
2016,10,07,01,23,19.30
2016,10,07,01,24,16.10
2016,10,07,01,25,35.40
2016,10,07,01,26,29.00
2016,10,07,01,27,27.40
2016,10,07,01,28,12.90
2016,10,07,01,29,11.30
2016,10,07,01,30,16.10
2016,10,07,01,31,19.30
2016,10,07,01,32,32.20
2016,10,07,01,33,30.60
2016,10,07,01,34,24.20
2016,10,07,01,35,16.10
2016,10,07,01,36,19.30
2016,10,07,01,37,16.10
2016,10,07,01,38,16.10
2016,10,07,01,39,11.30
2016,10,07,01,40,27.40
2016,10,07,01,41,27.40
2016,10,07,01,42,12.90
2016,10,07,01,43,16.10
2016,10,07,01,44,14.50
2016,10,07,01,45,17.70
2016,10,07,01,46,25.70
2016,10,07,01,47,24.20
2016,10,07,01,48,33.80
2016,10,07,01,49,24.20
2016,10,07,01,50,37.00
2016,10,07,01,51,33.80
2016,10,07,01,52,33.80
2016,10,07,01,53,29.00
2016,10,07,01,54,24.20
2016,10,07,01,55,24.20
2016,10,07,01,56,22.50
2016,10,07,01,57,12.90
2016,10,07,01,58,8.10
2016,10,07,01,59,37.00
2016,10,07,02,00,24.20
2016,10,07,02,01,22.50
2016,10,07,02,02,22.50
2016,10,07,02,03,22.50
2016,10,07,02,04,19.30
2016,10,07,02,05,24.20
2016,10,07,02,06,16.10
2016,10,07,02,07,29.00
2016,10,07,02,08,27.40
2016,10,07,02,09,24.20
2016,10,07,02,10,17.70
2016,10,07,02,11,14.50
2016,10,07,02,12,27.40
2016,10,07,02,13,17.70
2016,10,07,02,14,16.10
2016,10,07,02,15,38.60
2016,10,07,02,16,25.70
2016,10,07,02,17,17.70
2016,10,07,02,18,35.40
2016,10,07,02,19,22.50
2016,10,07,02,20,25.70
2016,10,07,02,21,24.20
2016,10,07,02,22,20.90
2016,10,07,02,23,25.70
2016,10,07,02,24,37.00
2016,10,07,02,25,30.60
2016,10,07,02,26,30.60
2016,10,07,02,27,30.60
2016,10,07,02,28,33.80
2016,10,07,02,29,43.50
2016,10,07,02,30,25.70
2016,10,07,02,31,33.80
2016,10,07,02,32,17.70
2016,10,07,02,33,30.60
2016,10,07,02,34,35.40
2016,10,07,02,35,20.90
2016,10,07,02,36,22.50
2016,10,07,02,37,27.40
2016,10,07,02,38,16.10
2016,10,07,02,39,48.30
2016,10,07,02,40,25.70
2016,10,07,02,41,32.20
2016,10,07,02,42,27.40
2016,10,07,02,43,25.70
2016,10,07,02,44,35.40
2016,10,07,02,45,30.60
2016,10,07,02,46,24.20
2016,10,07,02,47,25.70
2016,10,07,02,48,17.70
2016,10,07,02,49,11.30
2016,10,07,02,50,27.40
2016,10,07,02,51,30.60
2016,10,07,02,52,33.80
2016,10,07,02,53,45.10
2016,10,07,02,54,22.50
2016,10,07,02,55,35.40
2016,10,07,02,56,35.40
2016,10,07,02,57,38.60
2016,10,07,02,58,35.40
2016,10,07,02,59,43.50
2016,10,07,03,00,11.30
2016,10,07,03,01,19.30
2016,10,07,03,02,19.30
2016,10,07,03,03,25.70
2016,10,07,03,04,35.40
2016,10,07,03,05,14.50
2016,10,07,03,06,16.10
2016,10,07,03,07,32.20
2016,10,07,03,08,25.70
2016,10,07,03,09,29.00
2016,10,07,03,10,29.00
2016,10,07,03,11,27.40
2016,10,07,03,12,25.70
2016,10,07,03,13,9.60
2016,10,07,03,14,9.60
2016,10,07,03,15,6.40
2016,10,07,03,16,20.90
2016,10,07,03,17,12.90
2016,10,07,03,18,12.90
2016,10,07,03,19,17.70
2016,10,07,03,20,20.90
2016,10,07,03,21,25.70
2016,10,07,03,22,16.10
2016,10,07,03,23,19.30
2016,10,07,03,24,25.70
2016,10,07,03,25,22.50
2016,10,07,03,26,17.70
2016,10,07,03,27,8.10
2016,10,07,03,28,24.20
2016,10,07,03,29,14.50
2016,10,07,03,30,12.90
2016,10,07,03,31,17.70
2016,10,07,03,32,22.50
2016,10,07,03,33,16.10
2016,10,07,03,34,25.70
2016,10,07,03,35,16.10
2016,10,07,03,36,17.70
2016,10,07,03,37,19.30
2016,10,07,03,38,9.60
2016,10,07,03,39,16.10
2016,10,07,03,40,16.10
2016,10,07,03,41,11.30
2016,10,07,03,42,14.50
2016,10,07,03,43,22.50
2016,10,07,03,44,17.70
2016,10,07,03,45,16.10
2016,10,07,03,46,6.40
2016,10,07,03,47,16.10
2016,10,07,03,48,17.70
2016,10,07,03,49,12.90
2016,10,07,03,50,20.90
2016,10,07,03,51,17.70
2016,10,07,03,52,14.50
2016,10,07,03,53,20.90
2016,10,07,03,54,27.40
2016,10,07,03,55,17.70
2016,10,07,03,56,9.60
2016,10,07,03,57,16.10
2016,10,07,03,58,19.30
2016,10,07,03,59,20.90
2016,10,07,04,00,22.50
2016,10,07,04,01,22.50
2016,10,07,04,02,9.60
2016,10,07,04,03,14.50
2016,10,07,04,04,22.50
2016,10,07,04,05,20.90
2016,10,07,04,06,19.30
2016,10,07,04,07,14.50
2016,10,07,04,08,9.60
2016,10,07,04,09,19.30
2016,10,07,04,10,25.70
2016,10,07,04,11,27.40
2016,10,07,04,12,16.10
2016,10,07,04,13,20.90
2016,10,07,04,14,25.70
2016,10,07,04,15,19.30
2016,10,07,04,16,27.40
2016,10,07,04,17,20.90
2016,10,07,04,18,20.90
2016,10,07,04,19,30.60
2016,10,07,04,20,17.70
2016,10,07,04,21,16.10
2016,10,07,04,22,9.60
2016,10,07,04,23,14.50
2016,10,07,04,24,29.00
2016,10,07,04,25,20.90
2016,10,07,04,26,29.00
2016,10,07,04,27,27.40
2016,10,07,04,28,29.00
2016,10,07,04,29,11.30
2016,10,07,04,30,16.10
2016,10,07,04,31,14.50
2016,10,07,04,32,11.30
2016,10,07,04,33,9.60
2016,10,07,04,34,11.30
2016,10,07,04,35,9.60
2016,10,07,04,36,12.90
2016,10,07,04,37,12.90
2016,10,07,04,38,8.10
2016,10,07,04,39,6.40
2016,10,07,04,40,3.20
2016,10,07,04,41,6.40
2016,10,07,04,42,6.40
2016,10,07,04,43,6.40
2016,10,07,04,44,9.60
2016,10,07,04,45,6.40
2016,10,07,04,46,3.20
2016,10,07,04,47,9.60
2016,10,07,04,48,11.30
2016,10,07,04,49,6.40
2016,10,07,04,50,4.80
2016,10,07,04,51,3.20
2016,10,07,04,52,3.20
2016,10,07,04,53,3.20
2016,10,07,04,54,1.60
2016,10,07,04,55,3.20
2016,10,07,04,56,1.60
2016,10,07,04,57,1.60
2016,10,07,04,58,3.20
2016,10,07,04,59,3.20
2016,10,07,05,00,1.60
2016,10,07,05,01,1.60
2016,10,07,05,02,1.60
2016,10,07,05,03,3.20
2016,10,07,05,04,1.60
2016,10,07,05,05,1.60
2016,10,07,05,06,1.60
2016,10,07,05,07,3.20
2016,10,07,05,08,1.60
2016,10,07,05,09,3.20
2016,10,07,05,10,1.60
2016,10,07,05,12,1.60
2016,10,07,05,13,1.60
2016,10,07,05,14,1.60
2016,10,07,05,15,1.60
2016,10,07,05,47,3.20
2016,10,07,05,48,1.60
2016,10,07,05,49,1.60
2016,10,07,05,54,1.60
2016,10,07,05,55,3.20
2016,10,07,05,56,3.20
2016,10,07,06,04,3.20
2016,10,07,06,05,6.40
2016,10,07,06,06,16.10
2016,10,07,06,07,9.60
2016,10,07,06,08,11.30
2016,10,07,06,09,4.80
2016,10,07,06,10,1.60
2016,10,07,06,11,8.10
2016,10,07,06,12,4.80
2016,10,07,06,13,4.80
2016,10,07,06,14,3.20
2016,10,07,06,15,3.20
2016,10,07,06,16,4.80
2016,10,07,06,17,4.80
2016,10,07,06,18,3.20
2016,10,07,06,19,6.40
2016,10,07,06,20,4.80
2016,10,07,06,21,3.20
2016,10,07,06,22,4.80
2016,10,07,06,23,11.30
2016,10,07,06,24,9.60
2016,10,07,06,25,11.30
2016,10,07,06,26,4.80
2016,10,07,06,27,11.30
2016,10,07,06,28,9.60
2016,10,07,06,29,12.90
2016,10,07,06,30,12.90
2016,10,07,06,31,4.80
2016,10,07,06,32,12.90
2016,10,07,06,33,14.50
2016,10,07,06,34,6.40
2016,10,07,06,35,6.40
2016,10,07,06,36,3.20
2016,10,07,06,37,6.40
2016,10,07,06,38,6.40
2016,10,07,06,39,11.30
2016,10,07,06,40,17.70
2016,10,07,06,41,17.70
2016,10,07,06,42,3.20
2016,10,07,06,43,6.40
2016,10,07,06,44,3.20
2016,10,07,06,45,4.80
2016,10,07,06,46,11.30
2016,10,07,06,47,6.40
2016,10,07,06,48,12.90
2016,10,07,06,49,11.30
2016,10,07,06,50,14.50
2016,10,07,06,51,9.60
2016,10,07,06,52,6.40
2016,10,07,06,53,9.60
2016,10,07,06,54,9.60
2016,10,07,06,55,8.10
2016,10,07,06,56,6.40
2016,10,07,06,57,6.40
2016,10,07,06,58,4.80
2016,10,07,06,59,9.60
2016,10,07,07,00,6.40
2016,10,07,07,01,6.40
2016,10,07,07,02,8.10
2016,10,07,07,03,4.80
2016,10,07,07,04,3.20
2016,10,07,07,05,1.60
2016,10,07,07,06,4.80
2016,10,07,07,07,8.10
2016,10,07,07,08,6.40
2016,10,07,07,09,4.80
2016,10,07,07,10,8.10
2016,10,07,07,11,4.80
2016,10,07,07,12,6.40
2016,10,07,07,13,4.80
2016,10,07,07,14,4.80
2016,10,07,07,15,3.20
2016,10,07,07,17,1.60
2016,10,07,07,18,3.20
2016,10,07,07,19,4.80
2016,10,07,07,20,4.80
2016,10,07,07,21,3.20
2016,10,07,07,22,1.60
2016,10,07,07,23,3.20
2016,10,07,07,24,3.20
2016,10,07,07,25,1.60
2016,10,07,07,26,1.60
2016,10,07,07,27,1.60
2016,10,07,07,28,6.40
2016,10,07,07,29,1.60
2016,10,07,07,30,3.20
2016,10,07,07,31,3.20
2016,10,07,07,32,3.20
2016,10,07,07,33,3.20
2016,10,07,07,34,3.20
2016,10,07,07,35,3.20
2016,10,07,07,36,1.60
2016,10,07,07,37,3.20
2016,10,07,07,38,1.60
2016,10,07,07,39,1.60
2016,10,07,07,40,1.60
2016,10,07,07,41,3.20
2016,10,07,07,42,4.80
2016,10,07,07,43,4.80
2016,10,07,07,44,4.80
2016,10,07,07,45,3.20
2016,10,07,07,46,1.60
2016,10,07,07,47,3.20
2016,10,07,07,48,4.80
2016,10,07,07,49,6.40
2016,10,07,07,50,3.20
2016,10,07,07,51,3.20
2016,10,07,07,52,6.40
2016,10,07,07,53,3.20
2016,10,07,07,54,1.60
2016,10,07,07,55,1.60
2016,10,07,07,59,3.20
2016,10,07,08,00,1.60
2016,10,07,08,01,1.60
2016,10,07,08,02,1.60
2016,10,07,08,03,1.60
2016,10,07,08,05,1.60
2016,10,07,08,06,1.60
2016,10,07,08,10,3.20
2016,10,07,08,11,3.20
2016,10,07,08,12,1.60
2016,10,07,08,13,1.60
2016,10,07,08,25,1.60
2016,10,07,08,26,1.60
2016,10,07,08,37,1.60
2016,10,07,08,38,1.60
2016,10,07,08,39,3.20
2016,10,07,08,40,3.20
2016,10,07,08,41,1.60
2016,10,07,08,42,1.60
2016,10,07,08,43,1.60
2016,10,07,08,57,1.60
2016,10,07,08,58,1.60
2016,10,07,08,59,1.60
2016,10,07,09,00,1.60
2016,10,07,09,04,1.60
2016,10,07,09,05,1.60
2016,10,07,09,08,1.60
2016,10,07,09,09,1.60
2016,10,07,09,13,1.60
2016,10,07,09,14,1.60
2016,10,07,09,15,1.60
2016,10,07,09,16,1.60
2016,10,07,09,17,1.60
2016,10,07,09,18,1.60
2016,10,07,09,22,1.60
2016,10,07,09,23,1.60
2016,10,07,09,24,3.20
2016,10,07,09,25,3.20
2016,10,07,09,26,1.60
2016,10,07,09,27,3.20
2016,10,07,09,30,1.60
2016,10,07,09,31,1.60
2016,10,07,09,32,1.60
2016,10,07,09,33,1.60
2016,10,07,09,35,1.60
2016,10,07,09,36,3.20
2016,10,07,09,37,3.20
2016,10,07,09,38,1.60
2016,10,07,09,39,3.20
2016,10,07,09,40,1.60
2016,10,07,09,41,1.60
2016,10,07,09,42,1.60
2016,10,07,09,43,1.60
2016,10,07,09,44,1.60
2016,10,07,09,45,1.60
2016,10,07,09,46,3.20
2016,10,07,09,47,1.60
2016,10,07,09,50,1.60
2016,10,07,09,51,1.60
2016,10,07,09,52,1.60
2016,10,07,09,54,1.60
2016,10,07,09,56,3.20
2016,10,07,09,57,3.20
2016,10,07,09,58,3.20
2016,10,07,09,59,3.20
2016,10,07,10,00,3.20
2016,10,07,10,01,1.60
2016,10,07,10,02,1.60
2016,10,07,10,03,1.60
2016,10,07,10,04,3.20
2016,10,07,10,05,3.20
2016,10,07,10,06,4.80
2016,10,07,10,07,3.20
2016,10,07,10,08,3.20
2016,10,07,10,09,3.20
2016,10,07,10,10,3.20
2016,10,07,10,11,3.20
2016,10,07,10,12,3.20
2016,10,07,10,13,4.80
2016,10,07,10,14,3.20
2016,10,07,10,15,4.80
2016,10,07,10,16,3.20
2016,10,07,10,17,3.20
2016,10,07,10,18,3.20
2016,10,07,10,19,3.20
2016,10,07,10,20,3.20
2016,10,07,10,21,3.20
2016,10,07,10,22,6.40
2016,10,07,10,23,4.80
2016,10,07,10,24,4.80
2016,10,07,10,25,1.60
2016,10,07,10,26,3.20
2016,10,07,10,27,4.80
2016,10,07,10,28,3.20
2016,10,07,10,29,3.20
2016,10,07,10,30,1.60
2016,10,07,10,31,3.20
2016,10,07,10,32,4.80
2016,10,07,10,33,4.80
2016,10,07,10,34,3.20
2016,10,07,10,35,1.60
2016,10,07,10,36,1.60
2016,10,07,10,37,1.60
2016,10,07,10,38,1.60
2016,10,07,10,39,1.60
2016,10,07,10,40,1.60
2016,10,07,10,41,1.60
2016,10,07,10,42,3.20
2016,10,07,10,43,3.20
2016,10,07,10,44,3.20
2016,10,07,10,45,3.20
2016,10,07,10,46,3.20
2016,10,07,10,47,4.80
2016,10,07,10,48,4.80
2016,10,07,10,49,4.80
2016,10,07,10,50,4.80
2016,10,07,10,51,4.80
2016,10,07,10,52,6.40
2016,10,07,10,53,3.20
2016,10,07,10,54,6.40
2016,10,07,10,55,4.80
2016,10,07,10,56,4.80
2016,10,07,10,57,1.60
2016,10,07,10,58,3.20
2016,10,07,11,00,3.20
2016,10,07,11,01,1.60
2016,10,07,11,02,4.80
2016,10,07,11,03,4.80
2016,10,07,11,04,4.80
2016,10,07,11,05,4.80
2016,10,07,11,06,6.40
2016,10,07,11,07,6.40
2016,10,07,11,08,4.80
2016,10,07,11,09,3.20
2016,10,07,11,10,4.80
2016,10,07,11,11,11.30
2016,10,07,11,12,8.10
2016,10,07,11,13,4.80
2016,10,07,11,14,14.50
2016,10,07,11,15,9.60
2016,10,07,11,16,8.10
2016,10,07,11,17,1.60
2016,10,07,11,18,3.20
2016,10,07,11,19,4.80
2016,10,07,11,20,4.80
2016,10,07,11,21,1.60
2016,10,07,11,22,4.80
2016,10,07,11,23,3.20
2016,10,07,11,24,4.80
2016,10,07,11,25,4.80
2016,10,07,11,26,6.40
2016,10,07,11,27,4.80
2016,10,07,11,28,4.80
2016,10,07,11,30,3.20
2016,10,07,11,31,3.20
2016,10,07,11,32,4.80
2016,10,07,11,33,1.60
2016,10,07,11,34,3.20
2016,10,07,11,35,4.80
2016,10,07,11,36,3.20
2016,10,07,11,37,3.20
2016,10,07,11,38,3.20
2016,10,07,11,39,3.20
2016,10,07,11,40,4.80
2016,10,07,11,41,3.20
2016,10,07,11,42,3.20
2016,10,07,11,43,3.20
2016,10,07,11,44,6.40
2016,10,07,11,45,6.40
2016,10,07,11,46,4.80
2016,10,07,11,47,4.80
2016,10,07,11,48,3.20
2016,10,07,11,49,3.20
2016,10,07,11,50,4.80
2016,10,07,11,51,3.20
2016,10,07,11,52,3.20
2016,10,07,11,53,4.80
2016,10,07,11,54,6.40
2016,10,07,11,55,6.40
2016,10,07,11,56,6.40
2016,10,07,11,57,8.10
2016,10,07,11,58,8.10
2016,10,07,11,59,8.10
2016,10,07,12,00,12.90
2016,10,07,12,01,6.40
2016,10,07,12,02,9.60
2016,10,07,12,03,8.10
2016,10,07,12,04,4.80
2016,10,07,12,05,9.60
2016,10,07,12,06,6.40
2016,10,07,12,07,14.50
2016,10,07,12,08,14.50
2016,10,07,12,09,9.60
2016,10,07,12,10,9.60
2016,10,07,12,11,8.10
2016,10,07,12,12,8.10
2016,10,07,12,13,9.60
2016,10,07,12,14,11.30
2016,10,07,12,15,6.40
2016,10,07,12,16,6.40
2016,10,07,12,17,6.40
2016,10,07,12,18,8.10
2016,10,07,12,19,9.60
2016,10,07,12,20,6.40
2016,10,07,12,21,6.40
2016,10,07,12,22,6.40
2016,10,07,12,23,11.30
2016,10,07,12,24,11.30
2016,10,07,12,25,11.30
2016,10,07,12,26,11.30
2016,10,07,12,27,8.10
2016,10,07,12,28,8.10
2016,10,07,12,29,12.90
2016,10,07,12,30,11.30
2016,10,07,12,31,8.10
2016,10,07,12,32,6.40
2016,10,07,12,33,8.10
2016,10,07,12,34,8.10
2016,10,07,12,35,9.60
2016,10,07,12,36,11.30
2016,10,07,12,37,6.40
2016,10,07,12,38,9.60
2016,10,07,12,39,6.40
2016,10,07,12,40,4.80
2016,10,07,12,41,6.40
2016,10,07,12,42,4.80
2016,10,07,12,43,4.80
2016,10,07,12,44,3.20
2016,10,07,12,45,4.80
2016,10,07,12,46,4.80
2016,10,07,12,47,6.40
2016,10,07,12,48,6.40
2016,10,07,12,49,4.80
2016,10,07,12,50,4.80
2016,10,07,12,51,8.10
2016,10,07,12,52,4.80
2016,10,07,12,53,8.10
2016,10,07,12,54,8.10
2016,10,07,12,55,8.10
2016,10,07,12,56,8.10
2016,10,07,12,57,1.60
2016,10,07,12,58,8.10
2016,10,07,12,59,4.80
2016,10,07,13,00,9.60
2016,10,07,13,01,6.40
2016,10,07,13,02,4.80
2016,10,07,13,03,6.40
2016,10,07,13,04,1.60
2016,10,07,13,05,3.20
2016,10,07,13,06,6.40
2016,10,07,13,07,11.30
2016,10,07,13,08,6.40
2016,10,07,13,09,6.40
2016,10,07,13,10,9.60
2016,10,07,13,11,11.30
2016,10,07,13,12,4.80
2016,10,07,13,13,6.40
2016,10,07,13,14,3.20
2016,10,07,13,15,4.80
2016,10,07,13,16,4.80
2016,10,07,13,17,4.80
2016,10,07,13,18,6.40
2016,10,07,13,19,8.10
2016,10,07,13,20,6.40
2016,10,07,13,21,6.40
2016,10,07,13,22,6.40
2016,10,07,13,23,6.40
2016,10,07,13,24,6.40
2016,10,07,13,25,3.20
2016,10,07,13,26,6.40
2016,10,07,13,27,3.20
2016,10,07,13,28,3.20
2016,10,07,13,29,4.80
2016,10,07,13,30,6.40
2016,10,07,13,31,6.40
2016,10,07,13,32,6.40
2016,10,07,13,33,11.30
2016,10,07,13,34,8.10
2016,10,07,13,35,6.40
2016,10,07,13,36,1.60
2016,10,07,13,37,3.20
2016,10,07,13,38,1.60
2016,10,07,13,39,4.80
2016,10,07,13,40,4.80
2016,10,07,13,41,6.40
2016,10,07,13,42,4.80
2016,10,07,13,43,3.20
2016,10,07,13,44,6.40
2016,10,07,13,45,8.10
2016,10,07,13,46,4.80
2016,10,07,13,47,4.80
2016,10,07,13,48,6.40
2016,10,07,13,49,6.40
2016,10,07,13,50,6.40
2016,10,07,13,51,4.80
2016,10,07,13,52,8.10
2016,10,07,13,53,8.10
2016,10,07,13,54,4.80
2016,10,07,13,55,8.10
2016,10,07,13,56,4.80
2016,10,07,13,57,8.10
2016,10,07,13,58,4.80
2016,10,07,13,59,3.20
2016,10,07,14,00,3.20
2016,10,07,14,01,9.60
2016,10,07,14,02,4.80
2016,10,07,14,03,6.40
2016,10,07,14,04,8.10
2016,10,07,14,05,8.10
2016,10,07,14,06,4.80
2016,10,07,14,07,3.20
2016,10,07,14,08,6.40
2016,10,07,14,09,8.10
2016,10,07,14,10,8.10
2016,10,07,14,11,11.30
2016,10,07,14,12,9.60
2016,10,07,14,13,4.80
2016,10,07,14,14,9.60
2016,10,07,14,15,14.50
2016,10,07,14,16,9.60
2016,10,07,14,17,3.20
2016,10,07,14,18,6.40
2016,10,07,14,19,4.80
2016,10,07,14,20,6.40
2016,10,07,14,21,4.80
2016,10,07,14,22,4.80
2016,10,07,14,23,6.40
2016,10,07,14,24,4.80
2016,10,07,14,25,4.80
2016,10,07,14,26,4.80
2016,10,07,14,27,8.10
2016,10,07,14,28,12.90
2016,10,07,14,29,9.60
2016,10,07,14,30,8.10
2016,10,07,14,31,9.60
2016,10,07,14,32,8.10
2016,10,07,14,33,8.10
2016,10,07,14,34,6.40
2016,10,07,14,35,3.20
2016,10,07,14,36,8.10
2016,10,07,14,37,12.90
2016,10,07,14,38,8.10
2016,10,07,14,39,4.80
2016,10,07,14,40,6.40
2016,10,07,14,41,8.10
2016,10,07,14,42,6.40
2016,10,07,14,43,8.10
2016,10,07,14,44,6.40
2016,10,07,14,45,6.40
2016,10,07,14,46,4.80
2016,10,07,14,47,4.80
2016,10,07,14,48,3.20
2016,10,07,14,49,3.20
2016,10,07,14,50,3.20
2016,10,07,14,51,4.80
2016,10,07,14,52,3.20
2016,10,07,14,53,3.20
2016,10,07,14,54,3.20
2016,10,07,14,55,3.20
2016,10,07,14,56,6.40
2016,10,07,14,57,4.80
2016,10,07,14,58,6.40
2016,10,07,14,59,3.20
2016,10,07,15,00,4.80
2016,10,07,15,01,4.80
2016,10,07,15,02,8.10
2016,10,07,15,03,9.60
2016,10,07,15,04,6.40
2016,10,07,15,05,6.40
2016,10,07,15,06,6.40
2016,10,07,15,07,1.60
2016,10,07,15,08,3.20
2016,10,07,15,09,9.60
2016,10,07,15,10,6.40
2016,10,07,15,11,8.10
2016,10,07,15,12,3.20
2016,10,07,15,13,1.60
2016,10,07,15,14,3.20
2016,10,07,15,15,3.20
2016,10,07,15,16,3.20
2016,10,07,15,17,3.20
2016,10,07,15,18,3.20
2016,10,07,15,19,1.60
2016,10,07,15,20,1.60
2016,10,07,15,21,1.60
2016,10,07,15,23,4.80
2016,10,07,15,24,3.20
2016,10,07,15,25,1.60
2016,10,07,15,26,3.20
2016,10,07,15,27,4.80
2016,10,07,15,28,6.40
2016,10,07,15,29,6.40
2016,10,07,15,30,4.80
2016,10,07,15,31,4.80
2016,10,07,15,32,3.20
2016,10,07,15,33,4.80
2016,10,07,15,34,4.80
2016,10,07,15,35,6.40
2016,10,07,15,36,8.10
2016,10,07,15,37,9.60
2016,10,07,15,38,3.20
2016,10,07,15,39,6.40
2016,10,07,15,40,6.40
2016,10,07,15,41,3.20
2016,10,07,15,42,9.60
2016,10,07,15,43,3.20
2016,10,07,15,44,8.10
2016,10,07,15,45,6.40
2016,10,07,15,46,9.60
2016,10,07,15,47,8.10
2016,10,07,15,48,6.40
2016,10,07,15,49,9.60
2016,10,07,15,50,9.60
2016,10,07,15,51,9.60
2016,10,07,15,52,11.30
2016,10,07,15,53,8.10
2016,10,07,15,54,3.20
2016,10,07,15,55,3.20
2016,10,07,15,56,4.80
2016,10,07,15,57,3.20
2016,10,07,15,58,4.80
2016,10,07,15,59,9.60
2016,10,07,16,00,8.10
2016,10,07,16,01,4.80
2016,10,07,16,02,9.60
2016,10,07,16,03,8.10
2016,10,07,16,04,1.60
2016,10,07,16,05,3.20
2016,10,07,16,06,4.80
2016,10,07,16,07,4.80
2016,10,07,16,08,9.60
2016,10,07,16,09,8.10
2016,10,07,16,10,6.40
2016,10,07,16,11,8.10
2016,10,07,16,12,6.40
2016,10,07,16,13,4.80
2016,10,07,16,14,8.10
2016,10,07,16,15,8.10
2016,10,07,16,16,12.90
2016,10,07,16,17,6.40
2016,10,07,16,18,11.30
2016,10,07,16,19,8.10
2016,10,07,16,20,3.20
2016,10,07,16,21,1.60
2016,10,07,16,23,4.80
2016,10,07,16,24,6.40
2016,10,07,16,25,6.40
2016,10,07,16,26,6.40
2016,10,07,16,27,8.10
2016,10,07,16,28,11.30
2016,10,07,16,29,4.80
2016,10,07,16,30,6.40
2016,10,07,16,31,4.80
2016,10,07,16,32,6.40
2016,10,07,16,33,6.40
2016,10,07,16,34,8.10
2016,10,07,16,35,6.40
2016,10,07,16,36,6.40
2016,10,07,16,37,6.40
2016,10,07,16,38,8.10
2016,10,07,16,39,6.40
2016,10,07,16,40,6.40
2016,10,07,16,41,9.60
2016,10,07,16,42,4.80
2016,10,07,16,43,1.60
2016,10,07,16,44,3.20
2016,10,07,16,45,6.40
2016,10,07,16,46,4.80
2016,10,07,16,47,8.10
2016,10,07,16,48,8.10
2016,10,07,16,49,4.80
2016,10,07,16,50,6.40
2016,10,07,16,51,6.40
2016,10,07,16,52,6.40
2016,10,07,16,53,1.60
2016,10,07,16,54,3.20
2016,10,07,16,55,4.80
2016,10,07,16,56,4.80
2016,10,07,16,57,4.80
2016,10,07,16,58,3.20
2016,10,07,16,59,3.20
2016,10,07,17,00,6.40
2016,10,07,17,01,4.80
2016,10,07,17,02,3.20
2016,10,07,17,03,3.20
2016,10,07,17,04,3.20
2016,10,07,17,11,3.20
2016,10,07,17,12,4.80
2016,10,07,17,23,3.20
2016,10,07,17,24,3.20
2016,10,07,17,25,1.60
2016,10,07,17,26,3.20
2016,10,07,17,27,3.20
2016,10,07,17,30,1.60
2016,10,07,17,42,1.60
2016,10,07,18,56,1.60
2016,10,07,19,47,1.60
2016,10,07,20,21,1.60
2016,10,07,20,25,1.60
2016,10,07,20,33,1.60
2016,10,07,20,36,3.20
2016,10,07,20,37,3.20
2016,10,07,20,38,3.20
2016,10,07,20,39,3.20
2016,10,07,20,40,3.20
2016,10,07,20,41,1.60
2016,10,07,20,44,1.60
2016,10,07,20,45,1.60
2016,10,07,20,46,3.20
2016,10,07,20,47,1.60
2016,10,07,20,48,1.60
2016,10,07,20,49,1.60
2016,10,07,20,50,1.60
2016,10,07,20,51,1.60
2016,10,07,20,52,1.60
2016,10,07,21,01,1.60
2016,10,07,21,02,3.20
2016,10,07,21,03,3.20
2016,10,07,21,04,3.20
2016,10,07,21,05,4.80
2016,10,07,21,06,4.80
2016,10,07,21,07,3.20
2016,10,07,21,08,1.60
2016,10,07,21,09,1.60
2016,10,07,21,11,1.60
2016,10,07,21,12,1.60
2016,10,07,21,13,1.60
2016,10,07,21,14,1.60
2016,10,07,21,15,1.60
2016,10,07,21,16,3.20
2016,10,07,21,17,3.20
2016,10,07,21,18,3.20
2016,10,07,21,19,3.20
2016,10,07,21,20,1.60
2016,10,07,21,21,3.20
2016,10,07,21,22,3.20
2016,10,07,21,23,3.20
2016,10,07,21,24,3.20
2016,10,07,21,25,3.20
2016,10,07,21,26,3.20
2016,10,07,21,27,1.60
2016,10,07,21,28,1.60
2016,10,07,21,30,1.60
2016,10,07,21,31,1.60
2016,10,07,21,39,1.60
2016,10,07,21,40,1.60
2016,10,07,21,41,1.60
2016,10,07,21,42,1.60
2016,10,07,21,43,1.60
2016,10,07,21,52,1.60
2016,10,07,21,54,1.60
2016,10,07,21,55,1.60
2016,10,07,21,56,1.60
2016,10,07,21,57,1.60
2016,10,07,21,58,1.60
2016,10,07,21,59,3.20
2016,10,07,22,00,1.60
2016,10,07,22,17,1.60
2016,10,07,22,18,3.20
2016,10,07,22,19,1.60
2016,10,07,22,20,3.20
2016,10,07,22,21,3.20
2016,10,07,22,22,1.60
2016,10,07,22,23,1.60
2016,10,07,22,24,1.60
2016,10,07,22,25,1.60
2016,10,07,22,32,1.60
2016,10,07,22,34,1.60
2016,10,07,22,35,1.60
2016,10,07,22,36,1.60
2016,10,07,22,43,1.60
2016,10,07,23,34,1.60
2016,10,07,23,35,1.60
2016,10,07,23,52,1.60
2016,10,07,23,55,1.60
2016,10,07,23,56,1.60
2016,10,07,23,59,1.60
